Vorticity
10 8 15 12 -10 6 13 -18 8 10 -8 3 9 8 7 7 5 4 5 5 7 8 9 9 7 6 6 5 6 4 6 7
8 -7 26 3 9 -6 -1 -6 27 40 -2 9 9 6 9 4 5 5 4 6 8 8 9 7 7 7 5 5 5 6 6 7
22 -11 5 9 4 3 13 3 14 13 28 -3 8 7 4 5 5 4 6 8 9 6 6 8 8 8 4 4 6 7 6 7
6 8 13 18 26 14 11 5 27 9 -3 7 6 6 5 5 5 7 8 5 6 5 7 5 7 6 7 7 6 6 6 6
16 8 11 -2 32 -1 17 9 34 3 4 9 5 4 4 4 6 5 7 3 8 7 -3 8 5 7 8 6 5 6 6 8
14 9 -14 -5 34 10 14 23 9 5 8 7 5 3 4 7 8 6 4 9 8 2 1 10 4 9 7 6 6 5 4 4
13 8 -3 6 18 32 24 14 1 5 7 5 4 5 4 5 5 5 5 5 -5 1 24 6 4 6 7 4 3 2 1 2
4 6 9 6 54 32 3 15 13 14 -5 4 5 9 1 4 8 8 4 -0 5 5 10 9 7 7 5 4 4 2 2 3
2 15 4 15 54 -15 24 30 21 6 -1 10 4 2 6 5 2 3 4 3 -4 8 8 8 8 6 5 4 4 3 2 2
4 7 10 0 38 0 25 20 4 26 7 -2 5 1 2 3 3 -0 0 1 2 4 10 10 6 4 3 5 5 3 3 2
-5 9 2 6 5 10 4 -3 22 6 15 6 3 1 2 6 0 2 -1 -2 1 5 4 11 7 5 4 3 4 3 3 2
-17 -10 12 1 11 6 0 6 15 27 19 3 1 2 2 1 5 1 -3 -4 2 4 7 10 9 5 4 4 4 3 2 2
29 13 2 -21 61 11 4 6 13 4 -3 8 0 1 -1 5 4 -3 -3 -6 9 3 -2 6 8 7 6 5 3 3 5 12
21 22 7 18 -6 -10 14 23 16 -1 13 4 2 -0 -2 -1 3 1 3 9 1 9 0 6 8 7 6 5 4 5 -5 -9
10 29 5 4 4 20 -13 17 17 2 5 -2 1 -1 -0 0 -1 -3 -3 15 1 4 -2 5 8 7 6 5 5 -0 8 1
7 12 34 11 -3 17 -6 -3 24 8 1 27 6 -1 -0 12 3 -1 8 6 1 -3 8 1 7 8 5 3 2 5 -3 1
10 7 10 30 44 24 30 -8 12 17 14 18 28 11 -2 17 -8 2 -3 8 -1 4 1 0 4 7 4 1 5 3 0 3
5 8 7 7 13 24 28 22 15 15 15 21 20 7 8 7 8 18 7 3 8 3 -0 0 1 5 2 4 4 0 -2 1
6 5 7 7 7 6 13 14 19 15 12 13 19 19 15 8 5 14 12 9 5 2 -0 2 2 3 6 5 2 4 8 5
6 5 4 5 6 6 6 6 7 8 9 12 14 10 13 14 12 11 8 8 8 4 2 -1 -0 6 4 2 -2 1 4 0
Height
3102 3106 3113 3115 3118 3121 3123 3126 3130 3130 3136 3139 3144 3149 3155 3158 3162 3165 3167 3169 3172 3173 3175 3176 3176 3178 3179 3181 3182 3183 3184 3185
3098 3096 3107 3109 3113 3116 3119 3123 3123 3122 3129 3138 3143 3149 3155 3157 3162 3165 3167 3170 3172 3174 3175 3176 3178 3179 3180 3182 3183 3184 3186 3186
3097 3098 3103 3106 3109 3110 3114 3117 3118 3121 3124 3135 3141 3147 3152 3158 3162 3166 3168 3170 3172 3174 3175 3178 3179 3180 3181 3182 3183 3184 3185 3186
3095 3098 3102 3103 3105 3104 3111 3114 3115 3118 3124 3134 3140 3146 3153 3158 3163 3166 3168 3170 3172 3174 3177 3177 3179 3180 3181 3183 3183 3185 3187 3187
3093 3095 3098 3101 3102 3102 3105 3108 3111 3115 3126 3133 3138 3145 3151 3157 3162 3165 3167 3169 3172 3174 3176 3178 3179 3180 3181 3182 3183 3185 3187 3187
3088 3091 3093 3094 3092 3094 3098 3104 3109 3114 3125 3131 3137 3144 3150 3157 3162 3164 3166 3169 3172 3174 3176 3178 3179 3180 3181 3182 3183 3184 3186 3187
3088 3089 3089 3085 3083 3087 3093 3101 3108 3113 3123 3129 3136 3143 3150 3155 3159 3163 3166 3169 3170 3175 3176 3178 3179 3180 3181 3182 3182 3184 3185 3186
3087 3088 3089 3084 3080 3085 3092 3099 3104 3109 3122 3130 3136 3143 3149 3153 3159 3162 3165 3169 3170 3173 3175 3177 3178 3179 3179 3180 3182 3183 3183 3184
3086 3087 3088 3087 3085 3089 3094 3099 3104 3110 3117 3125 3135 3142 3148 3153 3157 3161 3165 3167 3169 3172 3174 3176 3177 3177 3178 3178 3180 3181 3182 3182
3082 3084 3087 3087 3088 3092 3095 3101 3105 3110 3114 3125 3136 3142 3147 3151 3155 3159 3163 3165 3167 3170 3172 3173 3174 3175 3176 3177 3178 3181 3181 3183
3079 3083 3085 3087 3090 3093 3096 3101 3105 3111 3117 3125 3133 3141 3146 3150 3154 3157 3160 3163 3165 3169 3170 3171 3172 3172 3173 3174 3176 3177 3178 3179
3079 3078 3083 3087 3090 3093 3096 3101 3106 3110 3116 3124 3130 3138 3143 3148 3151 3155 3157 3160 3163 3166 3167 3169 3170 3170 3171 3171 3173 3175 3175 3175
3077 3078 3080 3083 3087 3092 3096 3100 3104 3109 3114 3121 3126 3134 3139 3144 3148 3151 3155 3156 3160 3163 3164 3166 3166 3167 3168 3168 3169 3170 3171 3172
3076 3078 3080 3083 3086 3091 3095 3099 3102 3107 3113 3117 3124 3129 3135 3139 3145 3148 3150 3153 3156 3159 3161 3162 3162 3163 3165 3165 3167 3168 3169 3167
3076 3077 3080 3081 3086 3088 3091 3096 3101 3105 3109 3113 3118 3124 3129 3135 3140 3144 3145 3149 3152 3155 3158 3159 3159 3158 3161 3162 3162 3164 3164 3163
3078 3077 3078 3080 3083 3086 3089 3094 3098 3101 3107 3110 3115 3119 3124 3130 3135 3138 3141 3143 3147 3151 3152 3154 3155 3155 3155 3157 3157 3158 3158 3157
3078 3077 3077 3078 3080 3083 3087 3090 3095 3099 3103 3106 3110 3114 3119 3124 3129 3132 3136 3138 3142 3143 3146 3149 3150 3150 3151 3151 3152 3150 3151 3150
3077 3077 3077 3078 3079 3081 3083 3087 3091 3093 3097 3101 3106 3110 3115 3118 3122 3126 3130 3133 3136 3139 3141 3142 3143 3144 3144 3143 3143 3144 3144 3142
3076 3077 3078 3079 3080 3082 3084 3086 3089 3091 3094 3098 3101 3105 3108 3112 3116 3119 3122 3126 3130 3132 3133 3135 3135 3136 3135 3135 3135 3135 3134 3132
3074 3076 3078 3079 3080 3082 3084 3087 3089 3091 3093 3095 3098 3101 3104 3108 3111 3113 3117 3120 3122 3124 3126 3126 3126 3126 3126 3126 3125 3125 3121 3119